Time,TemperatureF,DewpointF,PressureIn,WindDirection,WindDirectionDegrees,WindSpeedMPH,WindSpeedGustMPH,Humidity,HourlyPrecipIn,Conditions,Clouds,dailyrainin,SoftwareType,DateUTC
2013-04-15 00:03:00,51.0,37.0,30.15,North,0,0.0,0.0,59,0.00,,,0.00,,2013-04-15 04:03:00,
2013-04-15 00:13:00,51.0,37.0,30.15,North,0,0.0,0.0,59,0.00,,,0.00,,2013-04-15 04:13:00,
2013-04-15 00:23:00,51.0,37.0,30.15,North,0,0.0,0.0,59,0.00,,,0.00,,2013-04-15 04:23:00,
2013-04-15 00:33:00,51.0,37.0,30.16,North,0,0.0,0.0,59,0.00,,,0.00,,2013-04-15 04:33:00,
2013-04-15 00:43:00,51.0,37.0,30.16,North,0,0.0,0.0,59,0.00,,,0.00,,2013-04-15 04:43:00,
2013-04-15 00:53:00,51.0,37.0,30.16,North,0,0.0,0.0,59,0.00,,,0.00,,2013-04-15 04:53:00,
2013-04-15 01:03:00,51.0,37.0,30.16,North,0,0.0,0.0,59,0.00,,,0.00,,2013-04-15 05:03:00,
2013-04-15 01:13:00,51.0,37.0,30.16,North,0,0.0,0.0,59,0.00,,,0.00,,2013-04-15 05:13:00,
2013-04-15 01:23:00,51.0,37.0,30.16,North,0,0.0,0.0,59,0.00,,,0.00,,2013-04-15 05:23:00,
2013-04-15 01:33:00,51.0,38.0,30.18,North,0,0.0,3.0,62,0.00,,,0.00,,2013-04-15 05:33:00,
2013-04-15 01:43:00,51.0,38.0,30.18,North,0,0.0,3.0,62,0.00,,,0.00,,2013-04-15 05:43:00,
2013-04-15 01:53:00,51.0,38.0,30.19,North,0,0.0,0.0,62,0.00,,,0.00,,2013-04-15 05:53:00,
2013-04-15 02:02:00,51.0,39.0,30.19,North,0,0.0,3.0,63,0.00,,,0.00,,2013-04-15 06:02:00,
2013-04-15 02:12:00,51.0,39.0,30.19,North,0,0.0,3.0,63,0.00,,,0.00,,2013-04-15 06:12:00,
2013-04-15 02:23:00,51.0,39.0,30.19,North,0,0.0,0.0,64,0.00,,,0.00,,2013-04-15 06:23:00,
2013-04-15 02:33:00,51.0,39.0,30.19,North,0,0.0,0.0,64,0.00,,,0.00,,2013-04-15 06:33:00,
2013-04-15 02:42:00,51.0,39.0,30.19,North,0,0.0,0.0,64,0.00,,,0.00,,2013-04-15 06:42:00,
2013-04-15 02:52:00,50.0,40.0,30.20,NW,309,1.0,3.0,68,0.00,,,0.00,,2013-04-15 06:52:00,
2013-04-15 03:03:00,50.0,40.0,30.20,WNW,298,2.0,5.0,68,0.00,,,0.00,,2013-04-15 07:03:00,
2013-04-15 03:41:00,50.0,40.0,30.20,WNW,298,2.0,5.0,68,0.00,,,0.00,,2013-04-15 07:41:00,
2013-04-15 03:42:00,50.0,39.0,30.20,WNW,298,3.0,6.0,67,0.00,,,0.00,,2013-04-15 07:42:00,
2013-04-15 03:54:00,50.0,40.0,30.22,WNW,298,6.0,9.0,68,0.00,,,0.00,,2013-04-15 07:54:00,
2013-04-15 04:02:00,49.0,39.0,30.22,WNW,298,4.0,11.0,68,0.00,,,0.00,,2013-04-15 08:02:00,
2013-04-15 04:13:00,49.0,39.0,30.22,WNW,298,4.0,11.0,68,0.00,,,0.00,,2013-04-15 08:13:00,
2013-04-15 04:22:00,49.0,39.0,30.22,WNW,298,5.0,11.0,67,0.00,,,0.00,,2013-04-15 08:22:00,
2013-04-15 04:34:00,49.0,39.0,30.22,WNW,297,5.0,11.0,67,0.00,,,0.00,,2013-04-15 08:34:00,
2013-04-15 04:42:00,49.0,39.0,30.22,WNW,297,5.0,11.0,67,0.00,,,0.00,,2013-04-15 08:42:00,
2013-04-15 04:52:00,48.0,37.0,30.24,WNW,298,5.0,10.0,66,0.00,,,0.00,,2013-04-15 08:52:00,
2013-04-15 05:03:00,48.0,37.0,30.24,WNW,298,6.0,11.0,65,0.00,,,0.00,,2013-04-15 09:03:00,
2013-04-15 05:12:00,48.0,37.0,30.24,WNW,298,6.0,11.0,65,0.00,,,0.00,,2013-04-15 09:12:00,
2013-04-15 05:23:00,48.0,36.0,30.25,WNW,298,6.0,10.0,64,0.00,,,0.00,,2013-04-15 09:23:00,
2013-04-15 05:33:00,48.0,36.0,30.25,WNW,298,6.0,10.0,64,0.00,,,0.00,,2013-04-15 09:33:00,
2013-04-15 05:43:00,48.0,36.0,30.25,WNW,298,6.0,10.0,64,0.00,,,0.00,,2013-04-15 09:43:00,
2013-04-15 05:53:00,48.0,36.0,30.24,WNW,298,7.0,11.0,63,0.00,,,0.00,,2013-04-15 09:53:00,
2013-04-15 06:02:00,48.0,36.0,30.24,WNW,298,5.0,11.0,63,0.00,,,0.00,,2013-04-15 10:02:00,
2013-04-15 06:13:00,48.0,36.0,30.24,WNW,298,5.0,11.0,63,0.00,,,0.00,,2013-04-15 10:13:00,
2013-04-15 06:23:00,48.0,36.0,30.25,WNW,298,3.0,7.0,63,0.00,,,0.00,,2013-04-15 10:23:00,
2013-04-15 06:33:00,48.0,36.0,30.25,WNW,298,4.0,7.0,63,0.00,,,0.00,,2013-04-15 10:33:00,
2013-04-15 06:42:00,48.0,36.0,30.25,WNW,298,4.0,7.0,63,0.00,,,0.00,,2013-04-15 10:42:00,
2013-04-15 06:53:00,48.0,36.0,30.27,WNW,298,4.0,10.0,63,0.00,,,0.00,,2013-04-15 10:53:00,
2013-04-15 07:03:00,48.0,36.0,30.27,WNW,298,4.0,9.0,64,0.00,,,0.00,,2013-04-15 11:03:00,
2013-04-15 07:12:00,48.0,36.0,30.27,WNW,298,4.0,9.0,64,0.00,,,0.00,,2013-04-15 11:12:00,
2013-04-15 07:23:00,48.0,36.0,30.27,WNW,298,5.0,9.0,64,0.00,,,0.00,,2013-04-15 11:23:00,
2013-04-15 07:32:00,48.0,36.0,30.28,WNW,298,4.0,10.0,64,0.00,,,0.00,,2013-04-15 11:32:00,
2013-04-15 07:43:00,48.0,36.0,30.28,WNW,298,4.0,10.0,64,0.00,,,0.00,,2013-04-15 11:43:00,
2013-04-15 07:54:00,48.0,37.0,30.29,WNW,298,4.0,11.0,65,0.00,,,0.00,,2013-04-15 11:54:00,
2013-04-15 08:04:00,48.0,37.0,30.29,WNW,298,5.0,11.0,65,0.00,,,0.00,,2013-04-15 12:04:00,
2013-04-15 08:14:00,48.0,37.0,30.29,WNW,298,5.0,11.0,65,0.00,,,0.00,,2013-04-15 12:14:00,
2013-04-15 08:23:00,48.0,37.0,30.30,WNW,298,5.0,14.0,66,0.00,,,0.00,,2013-04-15 12:23:00,
2013-04-15 08:33:00,48.0,37.0,30.30,WNW,298,6.0,11.0,65,0.00,,,0.00,,2013-04-15 12:33:00,
2013-04-15 08:43:00,48.0,37.0,30.30,WNW,298,6.0,11.0,65,0.00,,,0.00,,2013-04-15 12:43:00,
2013-04-15 08:53:00,48.0,37.0,30.30,WNW,298,7.0,12.0,66,0.00,,,0.00,,2013-04-15 12:53:00,
2013-04-15 09:04:00,48.0,38.0,30.30,WNW,298,4.0,11.0,67,0.00,,,0.00,,2013-04-15 13:04:00,
2013-04-15 09:13:00,48.0,38.0,30.30,WNW,298,4.0,11.0,67,0.00,,,0.00,,2013-04-15 13:13:00,
2013-04-15 09:23:00,48.0,38.0,30.30,WNW,298,8.0,14.0,69,0.00,,,0.00,,2013-04-15 13:23:00,
2013-04-15 09:33:00,48.0,39.0,30.30,WNW,298,6.0,15.0,70,0.00,,,0.00,,2013-04-15 13:33:00,
2013-04-15 09:43:00,48.0,39.0,30.30,WNW,298,6.0,15.0,70,0.00,,,0.00,,2013-04-15 13:43:00,
2013-04-15 09:54:00,48.0,40.0,30.29,WNW,298,4.0,9.0,74,0.00,,,0.00,,2013-04-15 13:54:00,
2013-04-15 10:05:00,48.0,40.0,30.29,WNW,298,9.0,14.0,74,0.00,,,0.00,,2013-04-15 14:05:00,
2013-04-15 10:13:00,48.0,40.0,30.29,WNW,298,9.0,14.0,74,0.00,,,0.00,,2013-04-15 14:13:00,
2013-04-15 10:22:00,48.0,40.0,30.29,WNW,297,6.0,13.0,74,0.00,,,0.00,,2013-04-15 14:22:00,
2013-04-15 10:33:00,48.0,40.0,30.29,WNW,297,8.0,14.0,74,0.00,,,0.00,,2013-04-15 14:33:00,
2013-04-15 10:44:00,48.0,40.0,30.29,WNW,297,8.0,14.0,74,0.00,,,0.00,,2013-04-15 14:44:00,
2013-04-15 10:55:00,49.0,41.0,30.30,WNW,298,10.0,19.0,73,0.00,,,0.00,,2013-04-15 14:55:00,
2013-04-15 11:03:00,49.0,41.0,30.30,WNW,298,8.0,13.0,73,0.00,,,0.00,,2013-04-15 15:03:00,
2013-04-15 11:13:00,49.0,41.0,30.30,WNW,298,8.0,13.0,73,0.00,,,0.00,,2013-04-15 15:13:00,
2013-04-15 11:24:00,50.0,41.0,30.30,WNW,297,6.0,11.0,72,0.00,,,0.00,,2013-04-15 15:24:00,
2013-04-15 11:35:00,50.0,41.0,30.30,WNW,298,7.0,13.0,72,0.00,,,0.00,,2013-04-15 15:35:00,
2013-04-15 11:44:00,50.0,41.0,30.30,WNW,298,7.0,13.0,72,0.00,,,0.00,,2013-04-15 15:44:00,
2013-04-15 11:55:00,52.0,43.0,30.30,WNW,298,8.0,11.0,71,0.00,,,0.00,,2013-04-15 15:55:00,
2013-04-15 12:05:00,52.0,43.0,30.30,WNW,299,6.0,13.0,70,0.00,,,0.00,,2013-04-15 16:05:00,
2013-04-15 12:14:00,52.0,43.0,30.30,WNW,299,6.0,13.0,70,0.00,,,0.00,,2013-04-15 16:14:00,
2013-04-15 12:24:00,54.0,44.0,30.30,WNW,298,4.0,13.0,69,0.00,,,0.00,,2013-04-15 16:24:00,
2013-04-15 12:33:00,55.0,45.0,30.29,WNW,299,6.0,10.0,69,0.00,,,0.00,,2013-04-15 16:33:00,
2013-04-15 12:44:00,55.0,45.0,30.29,WNW,299,6.0,10.0,69,0.00,,,0.00,,2013-04-15 16:44:00,
2013-04-15 12:54:00,56.0,45.0,30.29,WNW,298,8.0,13.0,67,0.00,,,0.00,,2013-04-15 16:54:00,
2013-04-15 13:04:00,56.0,45.0,30.29,WNW,297,7.0,15.0,66,0.00,,,0.00,,2013-04-15 17:04:00,
2013-04-15 13:15:00,56.0,45.0,30.29,WNW,297,7.0,15.0,66,0.00,,,0.00,,2013-04-15 17:15:00,
2013-04-15 13:22:00,56.0,45.0,30.28,WNW,298,5.0,12.0,66,0.00,,,0.00,,2013-04-15 17:22:00,
2013-04-15 13:33:00,57.0,45.0,30.28,WNW,298,7.0,14.0,64,0.00,,,0.00,,2013-04-15 17:33:00,
2013-04-15 13:43:00,57.0,45.0,30.28,WNW,298,7.0,14.0,64,0.00,,,0.00,,2013-04-15 17:43:00,
2013-04-15 13:53:00,57.0,45.0,30.28,WNW,298,9.0,17.0,64,0.00,,,0.00,,2013-04-15 17:53:00,
2013-04-15 14:03:00,58.0,46.0,30.28,WNW,298,8.0,12.0,65,0.00,,,0.00,,2013-04-15 18:03:00,
2013-04-15 14:13:00,58.0,46.0,30.28,WNW,298,8.0,12.0,65,0.00,,,0.00,,2013-04-15 18:13:00,
2013-04-15 14:24:00,59.0,46.0,30.28,WNW,300,4.0,10.0,63,0.00,,,0.00,,2013-04-15 18:24:00,
2013-04-15 14:33:00,58.0,45.0,30.28,WNW,299,10.0,13.0,63,0.00,,,0.00,,2013-04-15 18:33:00,
2013-04-15 14:42:00,58.0,45.0,30.28,WNW,299,10.0,13.0,63,0.00,,,0.00,,2013-04-15 18:42:00,
2013-04-15 14:52:00,57.0,46.0,30.29,WNW,299,8.0,14.0,66,0.00,,,0.00,,2013-04-15 18:52:00,
2013-04-15 15:02:00,57.0,46.0,30.29,WNW,298,9.0,14.0,66,0.00,,,0.00,,2013-04-15 19:02:00,
2013-04-15 15:12:00,57.0,46.0,30.29,WNW,298,9.0,14.0,66,0.00,,,0.00,,2013-04-15 19:12:00,
2013-04-15 15:22:00,57.0,47.0,30.29,WNW,298,7.0,12.0,68,0.00,,,0.00,,2013-04-15 19:22:00,
2013-04-15 15:38:00,57.0,47.0,30.29,WNW,298,10.0,15.0,69,0.00,,,0.00,,2013-04-15 19:38:00,
2013-04-15 15:53:00,57.0,47.0,30.29,WNW,298,10.0,15.0,69,0.00,,,0.00,,2013-04-15 19:53:00,
2013-04-15 16:01:00,56.0,47.0,30.29,WNW,298,5.0,12.0,71,0.00,,,0.00,,2013-04-15 20:01:00,
2013-04-15 16:02:00,57.0,48.0,30.28,WNW,299,9.0,16.0,72,0.00,,,0.00,,2013-04-15 20:02:00,
2013-04-15 16:11:00,57.0,48.0,30.28,WNW,299,9.0,16.0,72,0.00,,,0.00,,2013-04-15 20:11:00,
2013-04-15 16:22:00,57.0,48.0,30.28,WNW,299,5.0,11.0,72,0.00,,,0.00,,2013-04-15 20:22:00,
2013-04-15 16:32:00,58.0,48.0,30.27,WNW,299,7.0,13.0,69,0.00,,,0.00,,2013-04-15 20:32:00,
2013-04-15 16:42:00,58.0,48.0,30.27,WNW,299,7.0,13.0,69,0.00,,,0.00,,2013-04-15 20:42:00,
2013-04-15 16:52:00,57.0,47.0,30.27,WNW,298,6.0,15.0,70,0.00,,,0.00,,2013-04-15 20:52:00,
2013-04-15 17:02:00,57.0,47.0,30.27,WNW,299,5.0,15.0,68,0.00,,,0.00,,2013-04-15 21:02:00,
2013-04-15 17:12:00,57.0,47.0,30.27,WNW,299,5.0,15.0,68,0.00,,,0.00,,2013-04-15 21:12:00,
2013-04-15 17:22:00,56.0,46.0,30.28,WNW,299,8.0,15.0,69,0.00,,,0.00,,2013-04-15 21:22:00,
2013-04-15 17:33:00,55.0,45.0,30.29,WNW,299,10.0,17.0,70,0.00,,,0.00,,2013-04-15 21:33:00,
2013-04-15 17:43:00,55.0,45.0,30.29,WNW,299,10.0,17.0,70,0.00,,,0.00,,2013-04-15 21:43:00,
2013-04-15 17:53:00,54.0,45.0,30.29,WNW,299,9.0,12.0,72,0.00,,,0.00,,2013-04-15 21:53:00,
2013-04-15 18:02:00,54.0,46.0,30.29,WNW,299,6.0,15.0,73,0.00,,,0.00,,2013-04-15 22:02:00,
2013-04-15 18:13:00,54.0,46.0,30.29,WNW,299,6.0,15.0,73,0.00,,,0.00,,2013-04-15 22:13:00,
2013-04-15 18:23:00,54.0,46.0,30.29,WNW,300,5.0,8.0,73,0.00,,,0.00,,2013-04-15 22:23:00,
2013-04-15 18:33:00,54.0,46.0,30.29,WNW,298,8.0,11.0,74,0.00,,,0.00,,2013-04-15 22:33:00,
2013-04-15 18:42:00,54.0,46.0,30.29,WNW,298,8.0,11.0,74,0.00,,,0.00,,2013-04-15 22:42:00,
2013-04-15 18:52:00,53.0,46.0,30.30,WNW,299,4.0,15.0,76,0.00,,,0.00,,2013-04-15 22:52:00,
2013-04-15 19:02:00,53.0,46.0,30.30,WNW,299,4.0,15.0,76,0.00,,,0.00,,2013-04-15 23:02:00,
2013-04-15 19:12:00,53.0,46.0,30.30,WNW,299,4.0,15.0,76,0.00,,,0.00,,2013-04-15 23:12:00,
2013-04-15 19:22:00,53.0,46.0,30.31,WNW,299,7.0,11.0,76,0.00,,,0.00,,2013-04-15 23:22:00,
2013-04-15 19:32:00,53.0,46.0,30.31,WNW,299,8.0,13.0,77,0.00,,,0.00,,2013-04-15 23:32:00,
2013-04-15 19:42:00,53.0,46.0,30.31,WNW,299,8.0,13.0,77,0.00,,,0.00,,2013-04-15 23:42:00,
2013-04-15 19:52:00,52.0,46.0,30.31,WNW,300,3.0,12.0,79,0.00,,,0.00,,2013-04-15 23:52:00,
2013-04-15 20:02:00,52.0,46.0,30.31,WNW,299,4.0,11.0,80,0.00,,,0.00,,2013-04-16 00:02:00,
2013-04-15 20:12:00,52.0,46.0,30.31,WNW,299,4.0,11.0,80,0.00,,,0.00,,2013-04-16 00:12:00,
2013-04-15 20:22:00,52.0,46.0,30.32,WNW,299,7.0,13.0,81,0.00,,,0.00,,2013-04-16 00:22:00,
2013-04-15 20:32:00,52.0,46.0,30.32,WNW,298,8.0,12.0,81,0.00,,,0.00,,2013-04-16 00:32:00,
2013-04-15 20:42:00,52.0,46.0,30.32,WNW,298,8.0,12.0,81,0.00,,,0.00,,2013-04-16 00:42:00,
2013-04-15 20:52:00,52.0,46.0,30.32,WNW,298,3.0,12.0,81,0.00,,,0.00,,2013-04-16 00:52:00,
2013-04-15 21:02:00,52.0,46.0,30.32,WNW,299,5.0,11.0,81,0.00,,,0.00,,2013-04-16 01:02:00,
2013-04-15 21:12:00,52.0,46.0,30.32,WNW,298,8.0,14.0,81,0.00,,,0.00,,2013-04-16 01:12:00,
2013-04-15 21:22:00,52.0,46.0,30.32,WNW,298,8.0,14.0,81,0.00,,,0.00,,2013-04-16 01:22:00,
2013-04-15 21:32:00,52.0,46.0,30.32,WNW,299,6.0,11.0,81,0.00,,,0.00,,2013-04-16 01:32:00,
2013-04-15 21:42:00,52.0,46.0,30.32,WNW,299,6.0,11.0,81,0.00,,,0.00,,2013-04-16 01:42:00,
2013-04-15 21:52:00,52.0,46.0,30.33,WNW,299,5.0,11.0,81,0.00,,,0.00,,2013-04-16 01:52:00,
2013-04-15 22:02:00,52.0,46.0,30.33,WNW,299,5.0,16.0,81,0.00,,,0.00,,2013-04-16 02:02:00,
2013-04-15 22:12:00,52.0,46.0,30.33,WNW,299,5.0,16.0,81,0.00,,,0.00,,2013-04-16 02:12:00,
2013-04-15 22:22:00,52.0,47.0,30.34,WNW,299,11.0,15.0,82,0.00,,,0.00,,2013-04-16 02:22:00,
2013-04-15 22:32:00,52.0,47.0,30.34,WNW,299,5.0,11.0,82,0.00,,,0.00,,2013-04-16 02:32:00,
2013-04-15 22:42:00,52.0,47.0,30.34,WNW,299,5.0,11.0,82,0.00,,,0.00,,2013-04-16 02:42:00,
2013-04-15 22:52:00,52.0,47.0,30.33,WNW,298,7.0,12.0,83,0.00,,,0.00,,2013-04-16 02:52:00,
2013-04-15 23:02:00,51.0,46.0,30.33,WNW,298,3.0,10.0,83,0.00,,,0.00,,2013-04-16 03:02:00,
2013-04-15 23:12:00,51.0,46.0,30.33,WNW,298,3.0,10.0,83,0.00,,,0.00,,2013-04-16 03:12:00,
2013-04-15 23:22:00,51.0,46.0,30.33,WNW,298,5.0,9.0,84,0.00,,,0.00,,2013-04-16 03:22:00,
2013-04-15 23:33:00,51.0,46.0,30.33,WNW,298,5.0,12.0,84,0.00,,,0.00,,2013-04-16 03:33:00,
2013-04-15 23:43:00,51.0,46.0,30.33,WNW,298,5.0,12.0,84,0.00,,,0.00,,2013-04-16 03:43:00,
2013-04-15 23:53:00,51.0,47.0,30.33,WNW,298,4.0,7.0,85,0.00,,,0.00,,2013-04-16 03:53:00,